Probability
13 10 6 10 10 6 6 3 3 3 6 0 6 3 3 3 0 3 3 0 0 0 0 0 3 3 3 3 0 3 6 6 6 10 10 13 13 16
10 10 6 10 10 10 6 3 3 3 6 6 3 3 3 3 3 3 3 3 3 0 0 0 0 0 0 0 0 0 0 0 3 6 6 10 10 13
13 10 16 10 10 10 13 6 3 3 6 6 6 6 3 3 3 3 3 3 3 3 3 3 3 3 0 0 0 0 0 0 0 0 0 3 6 10
23 19 16 10 13 13 13 13 10 6 10 10 13 10 10 3 3 6 3 3 3 3 3 3 3 3 3 3 3 0 0 0 0 0 0 0 0 0
23 19 19 16 16 13 13 13 10 10 10 10 13 16 6 3 3 3 3 6 3 3 3 3 3 3 3 3 3 0 0 0 0 0 0 0 0 0
16 19 19 19 19 19 16 16 13 13 13 6 19 19 16 10 10 10 10 6 6 6 6 6 3 3 3 3 0 0 0 0 0 0 0 0 0 0
16 19 19 16 13 13 13 13 13 13 19 19 19 19 19 10 10 10 10 10 10 10 10 6 3 3 3 0 0 0 0 0 0 0 0 0 0 0
19 23 19 16 13 13 10 10 13 16 16 16 16 19 19 19 16 10 10 13 13 10 6 6 3 3 3 3 3 3 0 0 0 0 0 0 0 0
19 19 16 13 10 13 10 3 3 3 6 13 16 16 19 19 16 13 13 16 19 16 3 13 6 6 6 6 3 0 0 0 0 0 0 0 0 0
19 16 19 19 13 13 13 13 13 10 3 3 3 10 10 6 10 10 13 13 16 10 6 13 13 6 3 6 3 0 0 0 0 0 0 0 0 0
19 19 19 19 10 6 10 13 10 6 3 3 3 3 0 0 3 3 13 10 13 10 6 6 6 6 6 3 0 0 0 0 0 0 0 0 0 0
19 23 3 6 3 3 3 10 10 10 6 3 3 0 0 0 0 3 3 6 6 6 6 6 6 3 3 3 3 0 0 0 0 0 0 0 0 0
13 16 16 3 3 3 3 3 10 3 6 6 6 3 3 3 3 3 3 6 6 3 6 6 6 6 6 6 0 0 3 3 0 0 0 0 0 0
13 13 16 0 0 0 0 3 3 3 3 3 6 6 6 6 6 3 3 3 6 6 3 3 6 6 6 3 3 0 0 3 0 0 0 0 0 0
6 6 0 0 0 0 0 0 0 0 3 3 3 3 6 6 6 6 3 0 0 0 0 0 3 3 3 0 0 0 0 0 3 0 0 0 0 0
0 0 0 0 0 0 0 0 0 0 3 3 3 3 3 3 3 3 3 0 0 0 0 0 0 0 0 0 0 0 0 0 3 0 0 0 0 0
6 0 0 0 0 0 0 0 0 0 0 3 3 3 3 3 3 0 0 0 0 0 0 0 0 0 0 0 0 0 0 0 0 0 0 0 0 0
0 0 0 0 0 0 0 0 0 0 0 3 3 3 3 3 0 0 0 0 0 0 0 0 0 0 0 0 0 0 0 3 3 0 0 0 0 0
0 0 3 0 0 0 0 0 0 0 0 0 0 3 0 0 0 0 0 0 0 0 0 0 0 0 0 0 0 0 0 0 3 3 0 0 0 0
0 0 0 0 0 0 0 0 0 0 0 0 0 3 0 0 0 0 0 0 0 0 0 0 0 0 0 0 0 0 0 0 0 0 0 0 0 0
0 0 0 0 0 0 0 0 0 0 0 0 0 0 0 0 0 0 0 0 0 0 0 0 0 0 0 0 0 0 0 0 0 0 0 0 0 0
0 0 0 0 0 0 0 0 0 3 0 0 0 0 0 0 0 0 0 0 0 0 0 0 0 0 0 0 0 0 0 0 0 0 0 0 0 0
0 0 0 0 0 0 0 0 0 3 3 0 0 0 0 0 0 0 0 0 0 0 0 0 0 0 0 0 0 0 0 0 0 0 0 0 0 0
Height
5874 5874 5873 5872 5871 5871 5871 5870 5870 5869 5869 5868 5867 5866 5866 5865 5864 5863 5863 5862 5861 5860 5859 5859 5858 5858 5858 5857 5857 5856 5855 5854 5854 5853 5852 5851 5851 5850
5871 5871 5870 5869 5868 5867 5867 5866 5866 5866 5865 5864 5863 5862 5861 5860 5859 5859 5858 5857 5856 5855 5854 5854 5853 5853 5852 5852 5851 5851 5850 5849 5848 5848 5847 5846 5845 5844
5867 5867 5866 5865 5864 5863 5863 5862 5861 5861 5860 5859 5858 5857 5856 5855 5854 5853 5852 5852 5851 5850 5849 5848 5847 5847 5846 5846 5845 5845 5844 5843 5842 5842 5841 5840 5839 5838
5863 5862 5862 5861 5860 5859 5858 5857 5856 5856 5855 5854 5853 5852 5851 5850 5849 5848 5847 5846 5845 5844 5843 5842 5841 5840 5840 5839 5838 5838 5837 5836 5836 5835 5834 5833 5832 5831
5859 5858 5857 5856 5855 5854 5853 5852 5851 5850 5849 5848 5847 5846 5845 5844 5843 5842 5840 5839 5838 5837 5836 5835 5835 5834 5833 5832 5831 5831 5830 5829 5828 5828 5827 5826 5825 5825
5854 5853 5851 5850 5850 5848 5848 5846 5845 5844 5843 5842 5841 5840 5838 5837 5836 5835 5834 5833 5831 5830 5829 5828 5827 5826 5825 5824 5824 5823 5822 5821 5820 5820 5819 5819 5818 5817
5848 5847 5846 5845 5844 5843 5842 5841 5839 5838 5837 5835 5834 5833 5832 5830 5829 5828 5827 5825 5824 5823 5822 5821 5820 5818 5817 5816 5816 5815 5814 5813 5812 5812 5811 5811 5810 5809
5842 5841 5839 5838 5837 5836 5835 5834 5833 5831 5830 5828 5827 5826 5824 5823 5821 5820 5819 5818 5817 5816 5814 5813 5811 5810 5809 5808 5807 5806 5805 5804 5804 5803 5803 5802 5802 5801
5836 5834 5833 5832 5830 5829 5828 5826 5825 5823 5822 5820 5819 5817 5816 5814 5813 5811 5810 5809 5808 5807 5805 5805 5803 5801 5800 5799 5798 5797 5796 5795 5795 5794 5794 5793 5793 5792
5828 5827 5825 5824 5822 5821 5819 5818 5816 5815 5813 5811 5810 5809 5807 5805 5804 5802 5801 5800 5799 5797 5796 5796 5794 5792 5791 5789 5788 5787 5786 5785 5785 5784 5784 5784 5783 5783
5820 5818 5817 5815 5814 5812 5811 5809 5807 5805 5803 5802 5801 5799 5797 5796 5794 5793 5791 5790 5789 5788 5786 5785 5784 5782 5781 5779 5777 5776 5775 5775 5775 5774 5774 5774 5773 5773
5811 5809 5807 5806 5805 5802 5801 5799 5797 5796 5794 5792 5790 5788 5787 5786 5784 5782 5781 5780 5779 5778 5776 5775 5773 5771 5771 5770 5768 5766 5765 5764 5764 5764 5763 5763 5763 5763
5800 5799 5798 5796 5794 5792 5790 5789 5788 5786 5783 5782 5780 5778 5776 5775 5773 5772 5770 5769 5768 5767 5766 5764 5762 5760 5759 5759 5758 5756 5754 5753 5753 5753 5752 5752 5752 5752
5790 5788 5787 5785 5783 5781 5779 5778 5776 5774 5773 5771 5769 5767 5766 5764 5762 5761 5759 5758 5756 5755 5754 5752 5751 5749 5747 5746 5746 5746 5744 5742 5741 5741 5741 5740 5740 5740
5778 5777 5775 5773 5771 5770 5768 5766 5764 5762 5761 5760 5758 5756 5754 5753 5751 5750 5748 5746 5745 5743 5742 5740 5739 5737 5735 5734 5734 5733 5732 5731 5730 5729 5729 5728 5728 5728
5767 5765 5763 5761 5759 5758 5756 5754 5752 5750 5749 5748 5746 5744 5742 5741 5740 5738 5737 5735 5734 5732 5730 5728 5726 5725 5723 5722 5720 5720 5719 5719 5718 5716 5716 5715 5715 5715
5755 5752 5751 5749 5747 5745 5744 5741 5739 5738 5736 5735 5734 5732 5730 5729 5727 5726 5724 5723 5721 5720 5718 5716 5714 5712 5711 5709 5708 5707 5706 5705 5704 5704 5703 5703 5703 5703
5743 5741 5739 5737 5735 5732 5730 5728 5726 5724 5723 5722 5721 5719 5718 5716 5715 5713 5712 5710 5709 5707 5705 5704 5702 5700 5698 5697 5696 5694 5693 5692 5692 5691 5690 5691 5691 5691
5730 5728 5726 5724 5722 5720 5717 5715 5714 5712 5710 5709 5708 5707 5705 5704 5702 5701 5699 5697 5696 5694 5692 5690 5689 5687 5686 5685 5683 5681 5680 5679 5678 5678 5678 5678 5678 5678
5719 5716 5714 5712 5710 5708 5706 5704 5702 5700 5698 5697 5695 5694 5692 5691 5689 5688 5687 5685 5683 5681 5679 5677 5676 5674 5672 5671 5670 5669 5666 5665 5665 5665 5665 5665 5665 5665
5707 5705 5702 5700 5698 5696 5694 5692 5690 5688 5686 5685 5683 5681 5680 5678 5677 5676 5674 5672 5670 5669 5667 5665 5662 5660 5658 5657 5657 5656 5654 5652 5651 5651 5651 5651 5651 5651
5697 5694 5691 5689 5686 5684 5682 5680 5677 5675 5674 5672 5670 5669 5667 5666 5664 5663 5661 5659 5658 5656 5654 5652 5650 5647 5646 5644 5643 5642 5641 5639 5638 5637 5637 5637 5637 5638
5687 5684 5681 5678 5675 5673 5670 5668 5666 5663 5661 5659 5658 5656 5654 5653 5652 5650 5648 5647 5645 5643 5641 5639 5637 5635 5632 5631 5630 5629 5628 5627 5625 5624 5624 5623 5623 5624
Wind_Speed
11 11 11 12 12 12 12 13 13 13 14 15 15 15 16 17 17 16 17 18 18 19 19 19 19 20 20 20 20 20 20 19 20 20 21 21 21 21
12 13 13 13 13 14 14 15 15 15 15 17 17 18 18 18 19 19 19 19 19 20 20 21 21 21 22 21 21 22 22 21 21 21 21 22 22 22
14 14 15 15 15 16 16 17 17 18 17 18 19 20 20 20 20 20 20 20 21 21 21 22 23 23 23 23 23 23 23 23 23 23 23 23 22 23
16 16 17 17 17 17 18 18 19 20 20 20 21 21 22 21 21 21 21 21 22 23 23 23 23 23 24 25 25 25 25 26 26 25 25 24 24 24
18 18 18 18 19 19 19 20 21 21 21 22 22 23 23 23 22 23 23 23 24 24 24 24 24 25 25 25 26 27 27 27 28 27 26 25 25 25
20 19 19 19 20 21 22 22 22 22 23 23 24 24 24 24 24 24 25 25 25 26 27 27 27 27 27 27 27 28 29 29 29 28 28 27 27 26
21 21 22 21 22 23 23 24 24 24 24 25 25 25 25 26 26 26 26 26 27 27 28 28 28 28 28 29 29 30 30 30 30 30 30 29 29 28
24 24 24 24 24 25 25 25 26 26 26 27 27 27 27 28 28 28 28 28 28 29 29 29 30 29 29 30 31 31 31 32 32 31 32 31 30 29
26 26 27 27 26 27 27 28 28 28 29 29 28 28 28 29 30 30 29 29 30 30 30 30 31 30 31 32 32 32 32 32 32 32 32 32 31 31
29 29 29 29 30 30 30 30 31 31 31 31 30 30 30 31 31 31 31 32 31 32 32 32 31 32 33 33 33 33 34 34 33 32 32 32 32 31
31 31 31 32 32 32 32 32 32 32 32 32 33 33 33 33 33 33 33 32 32 33 33 33 33 34 34 35 35 35 35 35 35 34 33 33 32 31
32 33 33 33 34 34 35 34 34 34 33 33 33 34 34 34 33 33 33 33 33 34 34 35 35 35 35 35 36 36 36 36 36 35 35 34 34 33
34 35 35 35 35 36 36 37 37 36 35 35 36 36 35 35 35 35 35 35 36 36 36 36 36 37 37 35 35 35 36 37 37 37 37 37 37 36
36 37 37 37 37 37 38 38 38 38 38 38 37 37 37 37 37 37 37 37 37 37 37 38 37 37 37 37 36 36 37 38 38 38 39 38 38 38
37 38 39 39 40 40 40 40 40 40 40 39 39 38 39 39 39 39 38 38 38 38 38 38 38 38 37 37 37 37 37 38 39 38 38 38 39 39
39 39 39 40 41 41 41 42 42 42 42 41 40 40 40 40 41 40 40 40 39 39 39 39 39 38 38 38 38 37 37 38 38 38 38 38 39 39
40 40 41 41 41 43 43 42 42 41 42 42 42 42 42 41 41 41 41 41 41 41 41 41 41 40 40 39 39 39 38 38 38 38 38 38 38 39
39 40 41 42 42 42 42 42 42 41 41 42 42 41 41 41 41 41 41 41 41 42 42 41 41 41 41 41 40 39 39 38 38 38 38 37 37 38
38 39 40 40 40 40 40 40 40 40 40 41 41 42 43 42 42 41 41 41 41 42 42 41 41 41 41 41 40 40 39 39 38 38 38 38 38 39
37 37 38 39 39 40 40 40 40 40 41 41 41 42 41 41 41 41 41 41 41 41 41 41 41 41 42 41 40 40 41 40 39 39 39 38 38 39
36 37 38 38 39 39 40 40 40 41 41 41 40 40 40 40 40 39 40 40 41 40 40 40 41 41 40 40 39 39 40 40 40 40 39 40 39 39
35 35 36 36 37 37 37 38 38 38 39 39 39 39 39 39 39 39 40 40 40 40 40 40 40 40 40 40 39 39 39 39 39 39 39 39 39 38
34 35 35 36 36 37 37 37 37 38 38 38 38 39 40 39 40 40 40 40 40 39 38 39 39 39 39 40 39 39 38 38 37 37 38 39 39 39
Wind_Direction
276 273 274 277 277 276 276 276 276 275 275 274 274 274 275 278 278 278 278 280 280 279 278 278 279 279 280 282 282 284 286 286 287 287 284 283 283 284
280 279 277 278 277 275 274 275 276 277 276 275 275 276 277 277 277 279 279 278 279 280 279 278 278 278 279 281 283 283 284 286 287 288 287 284 280 281
281 279 277 277 276 277 276 277 278 279 278 277 278 279 279 278 278 278 279 280 281 281 280 279 278 278 279 280 281 281 281 283 284 286 287 286 285 283
279 277 276 276 276 276 277 279 279 279 279 278 279 280 281 280 279 279 280 281 282 281 281 281 281 281 280 280 279 279 279 280 282 284 286 285 286 286
278 277 277 277 278 279 279 280 280 280 279 280 280 280 281 280 280 281 281 281 282 283 283 283 283 282 281 279 277 277 279 280 280 282 283 283 283 284
277 277 278 279 280 282 282 282 282 282 282 282 281 281 282 281 281 280 279 280 282 283 283 282 283 282 280 278 276 276 277 279 279 279 280 281 282 283
277 278 278 278 280 282 283 282 282 283 284 284 282 282 283 283 282 281 280 280 281 280 280 281 283 283 280 279 278 277 278 279 278 279 280 281 281 281
279 279 279 278 279 281 282 282 283 283 284 283 283 282 281 282 282 281 281 281 280 279 279 280 281 282 281 280 279 279 279 279 278 279 280 280 281 280
279 280 281 281 281 281 281 281 282 282 282 282 283 281 280 280 281 280 280 281 280 279 278 279 280 280 281 281 281 282 280 279 278 278 279 279 279 278
279 279 280 281 282 282 282 282 281 281 281 281 281 280 279 279 280 279 279 280 280 280 279 279 279 279 279 279 279 280 280 278 278 278 278 277 277 278
279 280 281 281 282 283 282 282 282 282 281 282 282 280 279 279 279 279 279 278 277 278 279 280 280 280 280 279 279 279 279 279 278 277 278 276 274 276
279 280 282 283 282 282 282 282 282 283 281 281 282 281 280 280 280 279 278 278 279 279 280 281 282 282 281 280 279 279 278 278 277 277 277 276 274 274
278 279 281 281 282 281 281 283 283 282 281 281 281 280 280 281 280 280 279 280 281 282 282 282 283 283 283 281 279 278 277 277 277 277 277 277 275 274
278 279 279 280 281 281 281 282 282 281 281 281 282 281 279 280 280 279 280 281 281 282 283 284 284 283 283 282 280 278 277 276 276 276 276 276 275 274
279 279 278 279 280 280 281 281 281 281 280 280 281 282 280 279 280 280 280 280 281 282 283 283 283 284 284 283 281 279 277 276 276 275 275 275 274 273
280 280 280 280 281 280 281 281 281 280 279 281 281 281 280 279 280 279 279 279 280 282 282 283 284 284 283 283 282 280 279 277 276 274 274 274 274 273
281 281 282 283 283 282 282 282 283 282 281 280 280 280 280 279 279 279 280 281 281 282 282 282 283 284 284 283 282 281 280 278 276 275 274 273 273 272
282 282 283 283 283 284 283 283 283 281 281 280 280 281 280 280 280 280 281 281 281 281 281 281 281 282 282 282 282 281 280 278 276 275 275 274 274 274
285 284 284 283 283 284 283 282 282 281 281 280 279 279 279 280 280 280 281 282 282 282 281 281 281 280 280 280 280 280 279 277 276 276 275 275 274 274
286 285 285 284 283 282 282 282 282 281 280 279 278 279 278 278 279 280 281 281 281 281 282 282 282 281 280 280 278 278 278 278 276 275 275 275 274 275
289 288 287 286 286 284 283 283 283 281 281 280 278 278 277 278 279 281 282 282 281 281 281 282 282 282 281 280 279 278 279 278 277 276 275 275 275 275
291 290 289 288 287 286 286 286 285 283 281 279 279 278 279 280 279 279 280 281 282 281 280 281 281 281 280 281 280 279 279 278 277 276 275 276 276 275
293 292 291 290 288 286 286 285 284 283 280 279 279 280 279 280 280 280 281 281 282 281 280 280 280 280 280 281 281 280 279 278 278 277 277 276 276 275